Weather History for KGSH - December, 2014

Change the Weather History Date:

Thursday, December 25, 2014

  Actual Average Record
Temperature  
Mean Temperature 36 °F -  
Max Temperature 37 °F 31 °F 64 °F (1982)
Min Temperature 34 °F 17 °F -14 °F (1983)
Degree Days  
Heating Degree Days 30    
Moisture  
Dew Point 31 °F    
Average Humidity 82    
Maximum Humidity 89    
Minimum Humidity 76    
Precipitation  
Precipitation 0.00 in - - ()
Sea Level Pressure  
Sea Level Pressure 29.94 in    
Wind  
Wind Speed 15 mph (SW)    
Max Wind Speed 20 mph    
Max Gust Speed 31 mph    
Visibility 10 miles    
Events      
Averages and records for this station are not official NWS values.
T = Trace of Precipitation, MM = Missing Value Source: NWS Daily Summary

Daily Weather History Graph

Daily Weather History Graph

Search for Another Location

Airport or City:

Trip Planner

Search our weather history database for the weather conditions in past years. The results will help you decide how hot, cold, wet, or windy it might be!

Date:

Astronomy

Dec. 25, 2014 Rise Set
Actual Time 8:08 AM EST 5:18 PM EST
Civil Twilight 7:36 AM EST 5:50 PM EST
Nautical Twilight 7:01 AM EST 6:25 PM EST
Astronomical Twilight 6:27 AM EST 6:58 PM EST
Moon 10:38 AM EST (12/25) 9:54 PM EST (12/25)
Length of Visible Light 10h 13m
Length of Day
9h 10m
Waxing Crescent, 17% of the Moon is Illuminated
Dec 25
Waxing Crescent
Dec 28
First Quarter
Jan 4
Full
Jan 13
Last Quarter
Jan 20
New

Hourly Weather History & Observations

Time (EST) Temp. Windchill Dew Point Humidity Pressure Visibility Wind Dir Wind Speed Gust Speed Precip Events Conditions
12:53 AM 36.0 °F 26.0 °F 33.1 °F 89% 29.63 in 10.0 mi West 17.3 mph - N/A   Overcast
1:53 AM 36.0 °F 25.6 °F 33.1 °F 89% 29.65 in 10.0 mi West 18.4 mph - 0.00 in   Overcast
2:53 AM 36.0 °F 26.3 °F 33.1 °F 89% 29.70 in 9.0 mi West 16.1 mph - 0.00 in   Overcast
3:53 AM 36.0 °F 26.7 °F 33.1 °F 89% 29.73 in 10.0 mi West 15.0 mph - N/A   Overcast
4:01 AM 36.0 °F 27.1 °F 33.1 °F 89% 29.71 in 10.0 mi West 13.8 mph - N/A   Overcast
4:53 AM 36.0 °F 26.7 °F 32.0 °F 86% 29.77 in 10.0 mi West 15.0 mph - N/A   Overcast
5:33 AM 36.0 °F 26.0 °F 32.0 °F 86% 29.78 in 10.0 mi WSW 17.3 mph - N/A   Overcast
5:53 AM 36.0 °F 27.1 °F 32.0 °F 86% 29.81 in 10.0 mi WSW 13.8 mph - N/A   Overcast
6:53 AM 36.0 °F 26.0 °F 32.0 °F 86% 29.86 in 10.0 mi WSW 17.3 mph 24.2 mph N/A   Overcast
7:53 AM 36.0 °F 27.1 °F 30.9 °F 82% 29.89 in 10.0 mi WSW 13.8 mph - N/A   Overcast
8:53 AM 34.0 °F 24.6 °F 28.0 °F 79% 29.93 in 10.0 mi WSW 13.8 mph - N/A   Mostly Cloudy
9:14 AM 35.1 °F 26.9 °F 28.0 °F 76% 29.92 in 10.0 mi WSW 11.5 mph - N/A   Mostly Cloudy
9:53 AM 35.1 °F 26.9 °F 28.9 °F 78% 29.97 in 10.0 mi SW 11.5 mph - N/A   Overcast
10:53 AM 35.1 °F 25.2 °F 28.9 °F 78% 30.00 in 10.0 mi WSW 16.1 mph - N/A   Overcast
11:53 AM 35.1 °F 24.1 °F 28.9 °F 78% 30.02 in 10.0 mi WSW 19.6 mph 31.1 mph N/A   Overcast
12:53 PM 36.0 °F 26.7 °F 30.0 °F 79% 30.02 in 10.0 mi WSW 15.0 mph - N/A   Overcast
1:53 PM 37.0 °F 27.0 °F 30.0 °F 76% 30.02 in 10.0 mi SW 18.4 mph - N/A   Overcast
2:53 PM 37.0 °F 28.1 °F 30.0 °F 76% 30.04 in 10.0 mi SW 15.0 mph - N/A   Overcast
3:53 PM 37.9 °F 28.9 °F 30.9 °F 76% 30.07 in 10.0 mi SW 16.1 mph - N/A   Overcast
4:53 PM 37.9 °F 30.0 °F 30.9 °F 76% 30.07 in 10.0 mi SSW 12.7 mph - N/A   Overcast
5:42 PM 36.0 °F 29.6 °F 30.0 °F 79% 30.06 in 10.0 mi SSW 8.1 mph - N/A   Scattered Clouds
5:53 PM 35.1 °F 28.6 °F 30.0 °F 82% 30.09 in 10.0 mi South 8.1 mph - N/A   Partly Cloudy
6:53 PM 35.1 °F 27.9 °F 30.0 °F 82% 30.11 in 10.0 mi South 9.2 mph - N/A   Clear
7:53 PM 35.1 °F 26.9 °F 30.0 °F 82% 30.11 in 10.0 mi South 11.5 mph - N/A   Clear
8:53 PM 36.0 °F 28.0 °F 30.0 °F 79% 30.10 in 10.0 mi South 11.5 mph - N/A   Clear
9:53 PM 36.0 °F 28.5 °F 30.9 °F 82% 30.10 in 10.0 mi South 10.4 mph - N/A   Clear
10:53 PM 36.0 °F 27.1 °F 30.9 °F 82% 30.09 in 10.0 mi South 13.8 mph - N/A   Clear
11:53 PM 36.0 °F 28.0 °F 30.9 °F 82% 30.10 in 10.0 mi South 11.5 mph - N/A   Clear